PAL425 RPLL-RPVB

Flight info

Callsign PAL425
Flight time 0h 53m
Altitude 31000
Route VERDE2R VERDE W24 TAPER B472 LAMBO LAMBO3P
Aircraft A21N/M-SDE3FGHIRWY/LB1

Departure

Time 2026-05-07 12:43
Airport Ninoy Aquino International Airport (RPLL)

Arrival

Time 2026-05-07 13:36
Airport Bacolod-Silay International Airport (RPVB)
Time Latitude Longitude Altitude Speed Heading
2026-05-07 11:59 14.50882 121.01335 82 ft 0 kts 329°
2026-05-07 12:30 14.50877 121.01338 82 ft 2 kts 329°
2026-05-07 12:30 14.50864 121.01347 82 ft 2 kts 329°
2026-05-07 12:31 14.50851 121.01354 82 ft 2 kts 329°
2026-05-07 12:31 14.50838 121.01362 82 ft 2 kts 329°
2026-05-07 12:31 14.50825 121.01370 82 ft 1 kts 329°
2026-05-07 12:31 14.50816 121.01375 82 ft 2 kts 322°
2026-05-07 12:32 14.50807 121.01387 82 ft 2 kts 292°
2026-05-07 12:32 14.50804 121.01403 82 ft 2 kts 267°
2026-05-07 12:32 14.50807 121.01417 82 ft 1 kts 244°
2026-05-07 12:32 14.50810 121.01422 82 ft 1 kts 238°
2026-05-07 12:33 14.50811 121.01424 82 ft 0 kts 239°
2026-05-07 12:35 14.50809 121.01420 82 ft 0 kts 239°
2026-05-07 12:35 14.50798 121.01401 82 ft 5 kts 239°
2026-05-07 12:35 14.50773 121.01356 82 ft 7 kts 241°
2026-05-07 12:36 14.50743 121.01315 82 ft 6 kts 205°
2026-05-07 12:36 14.50706 121.01319 82 ft 5 kts 155°
2026-05-07 12:36 14.50671 121.01311 82 ft 5 kts 220°
2026-05-07 12:36 14.50643 121.01270 82 ft 8 kts 239°
2026-05-07 12:37 14.50605 121.01204 82 ft 12 kts 240°
2026-05-07 12:37 14.50557 121.01115 82 ft 15 kts 241°
2026-05-07 12:37 14.50497 121.01008 82 ft 18 kts 240°
2026-05-07 12:37 14.50426 121.00883 82 ft 21 kts 240°
2026-05-07 12:38 14.50348 121.00742 82 ft 23 kts 240°
2026-05-07 12:38 14.50264 121.00590 82 ft 25 kts 240°
2026-05-07 12:38 14.50174 121.00429 82 ft 25 kts 239°
2026-05-07 12:38 14.50088 121.00275 82 ft 23 kts 234°
2026-05-07 12:39 14.50011 121.00133 82 ft 22 kts 240°
2026-05-07 12:39 14.49948 121.00019 82 ft 12 kts 241°
2026-05-07 12:39 14.49921 120.99971 82 ft 3 kts 234°
2026-05-07 12:39 14.49903 120.99958 82 ft 2 kts 197°
2026-05-07 12:40 14.49885 120.99960 82 ft 0 kts 157°
2026-05-07 12:40 14.49884 120.99960 82 ft 0 kts 151°
2026-05-07 12:41 14.49875 120.99965 82 ft 4 kts 151°
2026-05-07 12:41 14.49831 120.99990 82 ft 10 kts 150°
2026-05-07 12:41 14.49805 121.00050 82 ft 10 kts 68°
2026-05-07 12:42 14.49823 121.00084 82 ft 0 kts 60°
2026-05-07 12:42 14.49849 121.00130 82 ft 33 kts 60°
2026-05-07 12:42 14.50092 121.00571 82 ft 105 kts 60°
2026-05-07 12:42 14.50564 121.01414 82 ft 163 kts 62°
2026-05-07 12:43 14.51186 121.02525 465 ft 180 kts 60°
2026-05-07 12:43 14.51839 121.03605 1151 ft 179 kts 62°
2026-05-07 12:43 14.52440 121.04707 1892 ft 177 kts 63°
2026-05-07 12:43 14.53019 121.05794 2617 ft 174 kts 62°
2026-05-07 12:44 14.53410 121.06519 2999 ft 174 kts 62°
2026-05-07 12:44 14.54215 121.07996 3575 ft 186 kts 61°
2026-05-07 12:44 14.54883 121.09210 3906 ft 202 kts 61°
2026-05-07 12:44 14.55615 121.10535 4211 ft 218 kts 60°
2026-05-07 12:45 14.56296 121.12003 4422 ft 241 kts 76°
2026-05-07 12:45 14.56270 121.13788 4754 ft 261 kts 105°
2026-05-07 12:45 14.55343 121.15429 5227 ft 275 kts 131°
2026-05-07 12:45 14.53951 121.16811 5912 ft 278 kts 133°
2026-05-07 12:46 14.52558 121.18221 6608 ft 282 kts 135°
2026-05-07 12:46 14.50913 121.19289 7238 ft 290 kts 161°
2026-05-07 12:46 14.48877 121.19379 7913 ft 295 kts 186°
2026-05-07 12:46 14.46866 121.18963 8573 ft 298 kts 191°
2026-05-07 12:47 14.44811 121.18482 9207 ft 301 kts 190°
2026-05-07 12:47 14.42757 121.18041 9827 ft 303 kts 188°
2026-05-07 12:47 14.40671 121.17636 10368 ft 307 kts 188°
2026-05-07 12:47 14.38518 121.17250 10655 ft 322 kts 187°
2026-05-07 12:48 14.36240 121.16865 10936 ft 336 kts 187°
2026-05-07 12:48 14.33881 121.16475 11317 ft 345 kts 187°
2026-05-07 12:48 14.31489 121.16085 11889 ft 347 kts 187°
2026-05-07 12:48 14.29097 121.15698 12449 ft 349 kts 187°
2026-05-07 12:49 14.26689 121.15311 12994 ft 350 kts 187°
2026-05-07 12:49 14.24263 121.14922 13511 ft 353 kts 187°
2026-05-07 12:49 14.21846 121.14535 13977 ft 356 kts 187°
2026-05-07 12:49 14.19381 121.14143 14431 ft 359 kts 187°
2026-05-07 12:50 14.16889 121.13744 14882 ft 362 kts 187°
2026-05-07 12:50 14.14384 121.13345 15311 ft 365 kts 187°
2026-05-07 12:50 14.11851 121.12942 15731 ft 369 kts 187°
2026-05-07 12:50 14.09291 121.12534 16142 ft 372 kts 187°
2026-05-07 12:51 14.06719 121.12125 16543 ft 374 kts 187°
2026-05-07 12:51 14.04152 121.11716 16936 ft 377 kts 187°
2026-05-07 12:51 14.01519 121.11297 17330 ft 380 kts 187°
2026-05-07 12:51 13.98903 121.10880 17709 ft 383 kts 187°
2026-05-07 12:52 13.96230 121.10455 18100 ft 385 kts 187°
2026-05-07 12:52 13.93580 121.10033 18484 ft 387 kts 187°
2026-05-07 12:52 13.90904 121.09607 18870 ft 389 kts 187°
2026-05-07 12:52 13.88209 121.09179 19243 ft 391 kts 187°
2026-05-07 12:53 13.85508 121.08750 19605 ft 393 kts 187°
2026-05-07 12:53 13.82778 121.08316 19973 ft 395 kts 187°
2026-05-07 12:53 13.80016 121.07877 20334 ft 397 kts 187°
2026-05-07 12:53 13.77257 121.07439 20678 ft 400 kts 187°
2026-05-07 12:54 13.74511 121.07004 21026 ft 401 kts 187°
2026-05-07 12:54 13.71729 121.06563 21367 ft 403 kts 188°
2026-05-07 12:54 13.68937 121.06119 21707 ft 405 kts 187°
2026-05-07 12:54 13.66149 121.05677 22030 ft 408 kts 187°
2026-05-07 12:55 13.63330 121.05231 22360 ft 409 kts 187°
2026-05-07 12:55 13.60509 121.04784 22694 ft 411 kts 188°
2026-05-07 12:55 13.57636 121.04330 23021 ft 413 kts 188°
2026-05-07 12:55 13.54782 121.03877 23337 ft 415 kts 188°
2026-05-07 12:56 13.51924 121.03690 23603 ft 416 kts 174°
2026-05-07 12:56 13.49096 121.04326 23902 ft 416 kts 158°
2026-05-07 12:56 13.46542 121.05716 24214 ft 415 kts 145°
2026-05-07 12:56 13.44145 121.07416 24524 ft 417 kts 143°
2026-05-07 12:57 13.41784 121.09135 24802 ft 420 kts 143°
2026-05-07 12:57 13.39376 121.10867 25090 ft 422 kts 144°
2026-05-07 12:57 13.36939 121.12595 25374 ft 424 kts 144°
2026-05-07 12:57 13.34487 121.14319 25659 ft 426 kts 144°
2026-05-07 12:58 13.32055 121.16020 25935 ft 429 kts 144°
2026-05-07 12:58 13.29568 121.17760 26207 ft 431 kts 145°
2026-05-07 12:58 13.27072 121.19508 26475 ft 433 kts 145°
2026-05-07 12:58 13.24602 121.21239 26737 ft 435 kts 145°
2026-05-07 12:59 13.22073 121.23010 26988 ft 437 kts 145°
2026-05-07 12:59 13.19572 121.24764 27231 ft 439 kts 145°
2026-05-07 12:59 13.17026 121.26547 27482 ft 441 kts 145°
2026-05-07 12:59 13.14481 121.28330 27742 ft 443 kts 145°
2026-05-07 13:00 13.11927 121.30119 27996 ft 445 kts 145°
2026-05-07 13:00 13.09353 121.31921 28242 ft 447 kts 145°
2026-05-07 13:00 13.06796 121.33714 28478 ft 449 kts 146°
2026-05-07 13:00 13.04205 121.35528 28718 ft 451 kts 146°
2026-05-07 13:01 13.01607 121.37347 28971 ft 452 kts 146°
2026-05-07 13:01 12.99007 121.39166 29254 ft 453 kts 146°
2026-05-07 13:01 12.96406 121.40985 29545 ft 453 kts 146°
2026-05-07 13:01 12.93794 121.42812 29818 ft 454 kts 146°
2026-05-07 13:02 12.91180 121.44640 30093 ft 454 kts 146°
2026-05-07 13:02 12.88559 121.46471 30363 ft 455 kts 146°
2026-05-07 13:02 12.85929 121.48309 30614 ft 456 kts 147°
2026-05-07 13:02 12.83288 121.50153 30828 ft 457 kts 147°
2026-05-07 13:03 12.78038 121.53818 30850 ft 456 kts 147°
2026-05-07 13:03 12.72770 121.57496 30844 ft 456 kts 147°
2026-05-07 13:04 12.67533 121.61150 30842 ft 456 kts 147°
2026-05-07 13:04 12.62292 121.64806 30840 ft 455 kts 147°
2026-05-07 13:05 12.57022 121.68481 30838 ft 455 kts 147°
2026-05-07 13:05 12.51770 121.72144 30835 ft 455 kts 147°
2026-05-07 13:06 12.46535 121.75794 30830 ft 455 kts 147°
2026-05-07 13:06 12.41289 121.79447 30829 ft 455 kts 147°
2026-05-07 13:07 12.35875 121.82782 30826 ft 454 kts 153°
2026-05-07 13:07 12.30149 121.85535 30827 ft 453 kts 158°
2026-05-07 13:08 12.24330 121.88071 30825 ft 453 kts 158°
2026-05-07 13:08 12.18493 121.90612 30822 ft 453 kts 158°
2026-05-07 13:09 12.12699 121.93137 30821 ft 453 kts 158°
2026-05-07 13:09 12.06890 121.95670 30821 ft 453 kts 158°
2026-05-07 13:10 12.01060 121.98210 30818 ft 453 kts 158°
2026-05-07 13:10 11.95228 122.00751 30817 ft 453 kts 158°
2026-05-07 13:11 11.89400 122.03288 30822 ft 453 kts 158°
2026-05-07 13:11 11.83586 122.05820 30746 ft 453 kts 158°
2026-05-07 13:12 11.81680 122.06648 30506 ft 452 kts 158°
2026-05-07 13:12 11.77805 122.08334 30001 ft 448 kts 158°
2026-05-07 13:12 11.74958 122.09572 29591 ft 446 kts 158°
2026-05-07 13:12 11.72072 122.10827 29136 ft 442 kts 158°
2026-05-07 13:13 11.69258 122.12050 28672 ft 439 kts 158°
2026-05-07 13:13 11.66443 122.13274 28199 ft 435 kts 157°
2026-05-07 13:13 11.63675 122.14476 27738 ft 431 kts 157°
2026-05-07 13:13 11.60933 122.15666 27275 ft 428 kts 157°
2026-05-07 13:14 11.58211 122.16847 26812 ft 424 kts 157°
2026-05-07 13:14 11.55503 122.18023 26353 ft 421 kts 156°
2026-05-07 13:14 11.52816 122.19190 25894 ft 417 kts 156°
2026-05-07 13:14 11.50133 122.20355 25430 ft 414 kts 156°
2026-05-07 13:15 11.47507 122.21494 24973 ft 411 kts 156°
2026-05-07 13:15 11.44890 122.22629 24518 ft 408 kts 155°
2026-05-07 13:15 11.42280 122.23762 24060 ft 405 kts 155°
2026-05-07 13:15 11.39693 122.24886 23604 ft 402 kts 155°
2026-05-07 13:16 11.37119 122.26003 23151 ft 399 kts 155°
2026-05-07 13:16 11.34600 122.27096 22698 ft 396 kts 154°
2026-05-07 13:16 11.32041 122.28207 22239 ft 393 kts 154°
2026-05-07 13:16 11.29551 122.29288 21798 ft 391 kts 154°
2026-05-07 13:17 11.27056 122.30372 21343 ft 389 kts 154°
2026-05-07 13:17 11.24558 122.31456 20887 ft 387 kts 154°
2026-05-07 13:17 11.22085 122.32529 20427 ft 385 kts 154°
2026-05-07 13:17 11.19606 122.33604 19967 ft 383 kts 153°
2026-05-07 13:18 11.17308 122.34879 19492 ft 377 kts 141°
2026-05-07 13:18 11.15408 122.36665 19027 ft 371 kts 127°
2026-05-07 13:18 11.13948 122.38834 18558 ft 367 kts 118°
2026-05-07 13:18 11.12674 122.41056 18096 ft 365 kts 117°
2026-05-07 13:19 11.11414 122.43290 17631 ft 363 kts 117°
2026-05-07 13:19 11.10155 122.45509 17173 ft 361 kts 117°
2026-05-07 13:19 11.08901 122.47707 16707 ft 359 kts 118°
2026-05-07 13:19 11.07644 122.49899 16229 ft 358 kts 118°
2026-05-07 13:20 11.06398 122.52065 15755 ft 357 kts 118°
2026-05-07 13:20 11.05142 122.54242 15276 ft 355 kts 118°
2026-05-07 13:20 11.03898 122.56398 14804 ft 354 kts 118°
2026-05-07 13:20 11.02657 122.58542 14340 ft 351 kts 118°
2026-05-07 13:21 11.01410 122.60698 13881 ft 349 kts 118°
2026-05-07 13:21 11.00191 122.62807 13426 ft 348 kts 118°
2026-05-07 13:21 10.98966 122.64927 12961 ft 346 kts 118°
2026-05-07 13:21 10.97747 122.67036 12513 ft 344 kts 118°
2026-05-07 13:22 10.96551 122.69107 12066 ft 342 kts 118°
2026-05-07 13:22 10.95338 122.71206 11618 ft 340 kts 118°
2026-05-07 13:22 10.94153 122.73257 11174 ft 338 kts 118°
2026-05-07 13:22 10.92958 122.75326 10726 ft 335 kts 118°
2026-05-07 13:23 10.91796 122.77335 10393 ft 329 kts 118°
2026-05-07 13:23 10.90655 122.79308 10233 ft 317 kts 118°
2026-05-07 13:23 10.89545 122.81227 10083 ft 305 kts 118°
2026-05-07 13:23 10.88495 122.83045 9944 ft 293 kts 118°
2026-05-07 13:24 10.87492 122.84780 9914 ft 282 kts 117°
2026-05-07 13:24 10.86500 122.86498 9753 ft 275 kts 117°
2026-05-07 13:24 10.85544 122.88155 9172 ft 275 kts 117°
2026-05-07 13:24 10.84575 122.89834 8555 ft 275 kts 117°
2026-05-07 13:25 10.83608 122.91508 8140 ft 274 kts 117°
2026-05-07 13:25 10.82648 122.93168 7788 ft 271 kts 117°
2026-05-07 13:25 10.81695 122.94816 7438 ft 269 kts 117°
2026-05-07 13:25 10.80739 122.96467 7082 ft 268 kts 117°
2026-05-07 13:26 10.79792 122.98103 6735 ft 266 kts 117°
2026-05-07 13:26 10.78856 122.99708 6390 ft 264 kts 118°
2026-05-07 13:26 10.77553 123.01078 6010 ft 272 kts 143°
2026-05-07 13:26 10.75753 123.01730 5809 ft 280 kts 169°
2026-05-07 13:27 10.73780 123.01647 5844 ft 288 kts 182°
2026-05-07 13:27 10.71760 123.01388 5865 ft 289 kts 183°
2026-05-07 13:27 10.69799 123.01128 5878 ft 277 kts 183°
2026-05-07 13:27 10.67924 123.00881 5885 ft 261 kts 182°
2026-05-07 13:28 10.66137 123.00655 5902 ft 258 kts 182°
2026-05-07 13:28 10.64331 123.00436 5916 ft 258 kts 182°
2026-05-07 13:28 10.62551 123.00221 5909 ft 258 kts 182°
2026-05-07 13:28 10.60752 123.00003 5626 ft 260 kts 182°
2026-05-07 13:29 10.58940 122.99783 5293 ft 260 kts 182°
2026-05-07 13:29 10.57145 122.99551 4971 ft 260 kts 186°
2026-05-07 13:29 10.55474 122.98827 4638 ft 266 kts 216°
2026-05-07 13:29 10.54298 122.97384 4323 ft 267 kts 244°
2026-05-07 13:30 10.53844 122.95589 4007 ft 264 kts 271°
2026-05-07 13:30 10.54159 122.93800 3695 ft 256 kts 297°
2026-05-07 13:30 10.55137 122.92333 3391 ft 246 kts 322°
2026-05-07 13:30 10.56538 122.91418 3112 ft 235 kts 345°
2026-05-07 13:31 10.58117 122.91141 2927 ft 219 kts
2026-05-07 13:31 10.59542 122.91470 2930 ft 207 kts 25°
2026-05-07 13:31 10.60853 122.92096 2934 ft 205 kts 31°
2026-05-07 13:31 10.62076 122.92793 3004 ft 196 kts 33°
2026-05-07 13:32 10.63217 122.93466 2905 ft 182 kts 34°
2026-05-07 13:32 10.64288 122.94099 2684 ft 175 kts 33°
2026-05-07 13:32 10.65320 122.94705 2472 ft 166 kts 33°
2026-05-07 13:32 10.66282 122.95266 2295 ft 150 kts 33°
2026-05-07 13:33 10.67177 122.95789 2103 ft 145 kts 33°
2026-05-07 13:33 10.68046 122.96297 1930 ft 144 kts 34°
2026-05-07 13:33 10.68927 122.96812 1763 ft 143 kts 33°
2026-05-07 13:33 10.69789 122.97313 1577 ft 141 kts 34°
2026-05-07 13:34 10.70646 122.97813 1392 ft 141 kts 33°
2026-05-07 13:34 10.72347 122.98804 1024 ft 140 kts 33°
2026-05-07 13:34 10.73189 122.99296 846 ft 139 kts 33°
2026-05-07 13:35 10.74036 122.99791 668 ft 139 kts 33°
2026-05-07 13:35 10.74884 123.00285 494 ft 139 kts 33°
2026-05-07 13:35 10.75725 123.00772 319 ft 137 kts 33°
2026-05-07 13:35 10.76551 123.01260 151 ft 135 kts 33°
2026-05-07 13:36 10.77352 123.01731 38 ft 127 kts 33°
2026-05-07 13:36 10.77905 123.02058 38 ft 47 kts 31°
2026-05-07 13:36 10.78061 123.02155 38 ft 18 kts 34°
2026-05-07 13:36 10.78110 123.02183 38 ft 3 kts 329°
2026-05-07 13:37 10.78098 123.02162 38 ft 6 kts 211°
2026-05-07 13:37 10.78047 123.02134 38 ft 10 kts 208°
2026-05-07 13:37 10.77970 123.02091 38 ft 14 kts 209°
2026-05-07 13:37 10.77874 123.02035 38 ft 16 kts 210°
2026-05-07 13:38 10.77773 123.01977 38 ft 14 kts 210°
2026-05-07 13:38 10.77695 123.01932 38 ft 11 kts 214°
2026-05-07 13:38 10.77688 123.01859 37 ft 12 kts 303°
2026-05-07 13:38 10.77731 123.01784 37 ft 12 kts 298°
2026-05-07 13:39 10.77743 123.01710 37 ft 10 kts 242°
2026-05-07 13:39 10.77681 123.01665 37 ft 11 kts 209°
2026-05-07 13:39 10.77626 123.01633 37 ft 7 kts 211°
2026-05-07 13:39 10.77603 123.01614 37 ft 3 kts 251°
2026-05-07 13:40 10.77614 123.01587 37 ft 5 kts 304°
2026-05-07 13:40 10.77629 123.01561 36 ft 3 kts 300°
2026-05-07 13:40 10.77632 123.01557 36 ft 0 kts 300°